Year,Month,Day,Hour,Minute,Value (Times are PST for temperature in C)
2015,06,29,00,00,19.10
2015,06,29,00,01,19.10
2015,06,29,00,02,19.10
2015,06,29,00,03,19.10
2015,06,29,00,04,19.10
2015,06,29,00,05,19.10
2015,06,29,00,06,19.00
2015,06,29,00,07,19.00
2015,06,29,00,08,19.00
2015,06,29,00,09,19.00
2015,06,29,00,10,19.00
2015,06,29,00,11,19.00
2015,06,29,00,12,19.00
2015,06,29,00,13,18.90
2015,06,29,00,14,18.90
2015,06,29,00,15,18.90
2015,06,29,00,16,18.90
2015,06,29,00,17,18.90
2015,06,29,00,18,18.90
2015,06,29,00,19,18.90
2015,06,29,00,20,18.90
2015,06,29,00,21,18.90
2015,06,29,00,22,18.90
2015,06,29,00,23,18.90
2015,06,29,00,24,18.90
2015,06,29,00,25,18.90
2015,06,29,00,26,18.90
2015,06,29,00,27,18.90
2015,06,29,00,28,18.90
2015,06,29,00,29,18.90
2015,06,29,00,30,18.90
2015,06,29,00,31,18.90
2015,06,29,00,32,18.90
2015,06,29,00,33,18.90
2015,06,29,00,34,18.90
2015,06,29,00,35,18.90
2015,06,29,00,36,18.90
2015,06,29,00,37,19.00
2015,06,29,00,38,19.00
2015,06,29,00,39,19.00
2015,06,29,00,40,19.00
2015,06,29,00,41,19.00
2015,06,29,00,42,19.00
2015,06,29,00,43,19.00
2015,06,29,00,44,19.00
2015,06,29,00,45,19.00
2015,06,29,00,46,19.00
2015,06,29,00,47,19.00
2015,06,29,00,48,19.00
2015,06,29,00,49,19.00
2015,06,29,00,50,18.90
2015,06,29,00,51,18.90
2015,06,29,00,52,18.90
2015,06,29,00,53,18.90
2015,06,29,00,54,18.90
2015,06,29,00,55,18.90
2015,06,29,00,56,18.90
2015,06,29,00,57,18.90
2015,06,29,00,58,18.90
2015,06,29,00,59,18.90
2015,06,29,01,00,18.90
2015,06,29,01,01,18.80
2015,06,29,01,02,18.80
2015,06,29,01,03,18.80
2015,06,29,01,04,18.80
2015,06,29,01,05,18.80
2015,06,29,01,06,18.80
2015,06,29,01,07,18.70
2015,06,29,01,08,18.70
2015,06,29,01,09,18.70
2015,06,29,01,10,18.70
2015,06,29,01,11,18.70
2015,06,29,01,12,18.70
2015,06,29,01,13,18.70
2015,06,29,01,14,18.60
2015,06,29,01,15,18.60
2015,06,29,01,16,18.60
2015,06,29,01,17,18.60
2015,06,29,01,18,18.60
2015,06,29,01,19,18.60
2015,06,29,01,20,18.60
2015,06,29,01,21,18.50
2015,06,29,01,22,18.50
2015,06,29,01,23,18.50
2015,06,29,01,24,18.50
2015,06,29,01,25,18.50
2015,06,29,01,26,18.50
2015,06,29,01,27,18.50
2015,06,29,01,28,18.50
2015,06,29,01,29,18.40
2015,06,29,01,30,18.40
2015,06,29,01,31,18.40
2015,06,29,01,32,18.40
2015,06,29,01,33,18.40
2015,06,29,01,34,18.40
2015,06,29,01,35,18.40
2015,06,29,01,36,18.40
2015,06,29,01,37,18.40
2015,06,29,01,38,18.40
2015,06,29,01,39,18.40
2015,06,29,01,40,18.30
2015,06,29,01,41,18.30
2015,06,29,01,42,18.30
2015,06,29,01,43,18.30
2015,06,29,01,44,18.30
2015,06,29,01,45,18.30
2015,06,29,01,46,18.30
2015,06,29,01,47,18.30
2015,06,29,01,48,18.20
2015,06,29,01,49,18.20
2015,06,29,01,50,18.20
2015,06,29,01,51,18.20
2015,06,29,01,52,18.20
2015,06,29,01,53,18.20
2015,06,29,01,54,18.20
2015,06,29,01,55,18.20
2015,06,29,01,56,18.10
2015,06,29,01,57,18.10
2015,06,29,01,58,18.10
2015,06,29,01,59,18.10
2015,06,29,02,00,18.10
2015,06,29,02,01,18.10
2015,06,29,02,02,18.10
2015,06,29,02,03,18.10
2015,06,29,02,04,18.00
2015,06,29,02,05,18.00
2015,06,29,02,06,18.00
2015,06,29,02,07,18.00
2015,06,29,02,08,18.00
2015,06,29,02,09,18.00
2015,06,29,02,10,17.90
2015,06,29,02,11,17.90
2015,06,29,02,12,17.90
2015,06,29,02,13,17.90
2015,06,29,02,14,17.90
2015,06,29,02,15,17.90
2015,06,29,02,16,17.90
2015,06,29,02,17,17.90
2015,06,29,02,18,17.90
2015,06,29,02,19,17.90
2015,06,29,02,20,17.90
2015,06,29,02,21,17.90
2015,06,29,02,22,17.80
2015,06,29,02,23,17.80
2015,06,29,02,24,17.80
2015,06,29,02,25,17.80
2015,06,29,02,26,17.80
2015,06,29,02,27,17.80
2015,06,29,02,28,17.80
2015,06,29,02,29,17.80
2015,06,29,02,30,17.80
2015,06,29,02,31,17.70
2015,06,29,02,32,17.70
2015,06,29,02,33,17.70
2015,06,29,02,34,17.70
2015,06,29,02,35,17.70
2015,06,29,02,36,17.70
2015,06,29,02,37,17.60
2015,06,29,02,38,17.60
2015,06,29,02,39,17.60
2015,06,29,02,40,17.60
2015,06,29,02,41,17.60
2015,06,29,02,42,17.60
2015,06,29,02,43,17.60
2015,06,29,02,44,17.60
2015,06,29,02,45,17.50
2015,06,29,02,46,17.50
2015,06,29,02,47,17.50
2015,06,29,02,48,17.50
2015,06,29,02,49,17.50
2015,06,29,02,50,17.40
2015,06,29,02,51,17.40
2015,06,29,02,52,17.40
2015,06,29,02,53,17.40
2015,06,29,02,54,17.30
2015,06,29,02,55,17.30
2015,06,29,02,56,17.30
2015,06,29,02,57,17.30
2015,06,29,02,58,17.30
2015,06,29,02,59,17.30
2015,06,29,03,00,17.20
2015,06,29,03,01,17.20
2015,06,29,03,02,17.30
2015,06,29,03,03,17.30
2015,06,29,03,04,17.30
2015,06,29,03,05,17.40
2015,06,29,03,06,17.40
2015,06,29,03,07,17.50
2015,06,29,03,08,17.50
2015,06,29,03,09,17.60
2015,06,29,03,10,17.70
2015,06,29,03,11,17.70
2015,06,29,03,12,17.80
2015,06,29,03,13,17.80
2015,06,29,03,14,17.90
2015,06,29,03,15,17.90
2015,06,29,03,16,17.90
2015,06,29,03,17,18.00
2015,06,29,03,18,18.00
2015,06,29,03,19,18.10
2015,06,29,03,20,18.10
2015,06,29,03,21,18.10
2015,06,29,03,22,18.10
2015,06,29,03,23,18.10
2015,06,29,03,24,18.20
2015,06,29,03,25,18.20
2015,06,29,03,26,18.20
2015,06,29,03,27,18.20
2015,06,29,03,28,18.20
2015,06,29,03,29,18.10
2015,06,29,03,30,18.10
2015,06,29,03,31,18.10
2015,06,29,03,32,18.00
2015,06,29,03,33,18.00
2015,06,29,03,34,17.90
2015,06,29,03,35,17.90
2015,06,29,03,36,17.90
2015,06,29,03,37,17.80
2015,06,29,03,38,17.80
2015,06,29,03,39,17.80
2015,06,29,03,40,17.70
2015,06,29,03,41,17.70
2015,06,29,03,42,17.70
2015,06,29,03,43,17.60
2015,06,29,03,44,17.60
2015,06,29,03,45,17.60
2015,06,29,03,46,17.50
2015,06,29,03,47,17.50
2015,06,29,03,48,17.40
2015,06,29,03,49,17.40
2015,06,29,03,50,17.40
2015,06,29,03,51,17.40
2015,06,29,03,52,17.50
2015,06,29,03,53,17.50
2015,06,29,03,54,17.50
2015,06,29,03,55,17.50
2015,06,29,03,56,17.50
2015,06,29,03,57,17.40
2015,06,29,03,58,17.40
2015,06,29,03,59,17.40
2015,06,29,04,00,17.40
2015,06,29,04,01,17.40
2015,06,29,04,02,17.40
2015,06,29,04,03,17.30
2015,06,29,04,04,17.30
2015,06,29,04,05,17.30
2015,06,29,04,06,17.30
2015,06,29,04,07,17.30
2015,06,29,04,08,17.20
2015,06,29,04,09,17.20
2015,06,29,04,10,17.20
2015,06,29,04,11,17.20
2015,06,29,04,12,17.20
2015,06,29,04,13,17.20
2015,06,29,04,14,17.20
2015,06,29,04,15,17.20
2015,06,29,04,16,17.20
2015,06,29,04,17,17.20
2015,06,29,04,18,17.30
2015,06,29,04,19,17.30
2015,06,29,04,20,17.30
2015,06,29,04,21,17.30
2015,06,29,04,22,17.30
2015,06,29,04,23,17.30
2015,06,29,04,24,17.30
2015,06,29,04,25,17.30
2015,06,29,04,26,17.30
2015,06,29,04,27,17.30
2015,06,29,04,28,17.30
2015,06,29,04,29,17.30
2015,06,29,04,30,17.30
2015,06,29,04,31,17.30
2015,06,29,04,32,17.40
2015,06,29,04,33,17.40
2015,06,29,04,34,17.40
2015,06,29,04,35,17.40
2015,06,29,04,36,17.40
2015,06,29,04,37,17.40
2015,06,29,04,38,17.30
2015,06,29,04,39,17.30
2015,06,29,04,40,17.30
2015,06,29,04,41,17.30
2015,06,29,04,42,17.30
2015,06,29,04,43,17.40
2015,06,29,04,44,17.40
2015,06,29,04,45,17.40
2015,06,29,04,46,17.40
2015,06,29,04,47,17.50
2015,06,29,04,48,17.50
2015,06,29,04,49,17.50
2015,06,29,04,50,17.60
2015,06,29,04,51,17.60
2015,06,29,04,52,17.60
2015,06,29,04,53,17.60
2015,06,29,04,54,17.60
2015,06,29,04,55,17.60
2015,06,29,04,56,17.60
2015,06,29,04,57,17.60
2015,06,29,04,58,17.70
2015,06,29,04,59,17.70
2015,06,29,05,00,17.60
2015,06,29,05,01,17.60
2015,06,29,05,02,17.50
2015,06,29,05,03,17.40
2015,06,29,05,04,17.30
2015,06,29,05,05,17.30
2015,06,29,05,06,17.20
2015,06,29,05,07,17.20
2015,06,29,05,08,17.10
2015,06,29,05,09,17.10
2015,06,29,05,10,17.00
2015,06,29,05,11,17.00
2015,06,29,05,12,16.90
2015,06,29,05,13,16.90
2015,06,29,05,14,16.90
2015,06,29,05,15,16.90
2015,06,29,05,16,16.80
2015,06,29,05,17,16.80
2015,06,29,05,18,16.80
2015,06,29,05,19,16.80
2015,06,29,05,20,16.70
2015,06,29,05,21,16.70
2015,06,29,05,22,16.70
2015,06,29,05,23,16.70
2015,06,29,05,24,16.70
2015,06,29,05,25,16.70
2015,06,29,05,26,16.60
2015,06,29,05,27,16.60
2015,06,29,05,28,16.60
2015,06,29,05,29,16.60
2015,06,29,05,30,16.60
2015,06,29,05,31,16.50
2015,06,29,05,32,16.50
2015,06,29,05,33,16.50
2015,06,29,05,34,16.40
2015,06,29,05,35,16.40
2015,06,29,05,36,16.40
2015,06,29,05,37,16.40
2015,06,29,05,38,16.40
2015,06,29,05,39,16.40
2015,06,29,05,40,16.40
2015,06,29,05,41,16.40
2015,06,29,05,42,16.30
2015,06,29,05,43,16.30
2015,06,29,05,44,16.30
2015,06,29,05,45,16.30
2015,06,29,05,46,16.30
2015,06,29,05,47,16.30
2015,06,29,05,48,16.30
2015,06,29,05,49,16.30
2015,06,29,05,50,16.30
2015,06,29,05,51,16.30
2015,06,29,05,52,16.30
2015,06,29,05,53,16.30
2015,06,29,05,54,16.30
2015,06,29,05,55,16.30
2015,06,29,05,56,16.30
2015,06,29,05,57,16.30
2015,06,29,05,58,16.30
2015,06,29,05,59,16.30
2015,06,29,06,00,16.30
2015,06,29,06,01,16.30
2015,06,29,06,02,16.30
2015,06,29,06,03,16.30
2015,06,29,06,04,16.30
2015,06,29,06,05,16.30
2015,06,29,06,06,16.40
2015,06,29,06,07,16.40
2015,06,29,06,08,16.40
2015,06,29,06,09,16.40
2015,06,29,06,10,16.40
2015,06,29,06,11,16.50
2015,06,29,06,12,16.50
2015,06,29,06,13,16.60
2015,06,29,06,14,16.60
2015,06,29,06,15,16.70
2015,06,29,06,16,16.70
2015,06,29,06,17,16.70
2015,06,29,06,18,16.70
2015,06,29,06,19,16.70
2015,06,29,06,20,16.70
2015,06,29,06,21,16.70
2015,06,29,06,22,16.60
2015,06,29,06,23,16.60
2015,06,29,06,24,16.60
2015,06,29,06,25,16.60
2015,06,29,06,26,16.60
2015,06,29,06,27,16.60
2015,06,29,06,28,16.60
2015,06,29,06,29,16.60
2015,06,29,06,30,16.60
2015,06,29,06,31,16.60
2015,06,29,06,32,16.60
2015,06,29,06,33,16.60
2015,06,29,06,34,16.50
2015,06,29,06,35,16.50
2015,06,29,06,36,16.50
2015,06,29,06,37,16.60
2015,06,29,06,38,16.60
2015,06,29,06,39,16.60
2015,06,29,06,40,16.60
2015,06,29,06,41,16.60
2015,06,29,06,42,16.60
2015,06,29,06,43,16.60
2015,06,29,06,44,16.60
2015,06,29,06,45,16.60
2015,06,29,06,46,16.60
2015,06,29,06,47,16.60
2015,06,29,06,48,16.60
2015,06,29,06,49,16.60
2015,06,29,06,50,16.60
2015,06,29,06,51,16.70
2015,06,29,06,52,16.70
2015,06,29,06,53,16.70
2015,06,29,06,54,16.70
2015,06,29,06,55,16.70
2015,06,29,06,56,16.80
2015,06,29,06,57,16.80
2015,06,29,06,58,16.90
2015,06,29,06,59,16.90
2015,06,29,07,00,16.90
2015,06,29,07,01,17.00
2015,06,29,07,02,17.00
2015,06,29,07,03,17.00
2015,06,29,07,04,17.10
2015,06,29,07,05,17.10
2015,06,29,07,06,17.10
2015,06,29,07,07,17.10
2015,06,29,07,08,17.10
2015,06,29,07,09,17.20
2015,06,29,07,10,17.20
2015,06,29,07,11,17.20
2015,06,29,07,12,17.20
2015,06,29,07,13,17.20
2015,06,29,07,14,17.30
2015,06,29,07,15,17.30
2015,06,29,07,16,17.40
2015,06,29,07,17,17.40
2015,06,29,07,18,17.50
2015,06,29,07,19,17.50
2015,06,29,07,20,17.60
2015,06,29,07,21,17.60
2015,06,29,07,22,17.70
2015,06,29,07,23,17.70
2015,06,29,07,24,17.80
2015,06,29,07,25,17.80
2015,06,29,07,26,17.90
2015,06,29,07,27,17.90
2015,06,29,07,28,18.00
2015,06,29,07,29,18.00
2015,06,29,07,30,18.10
2015,06,29,07,31,18.10
2015,06,29,07,32,18.20
2015,06,29,07,33,18.20
2015,06,29,07,34,18.30
2015,06,29,07,35,18.30
2015,06,29,07,36,18.30
2015,06,29,07,37,18.30
2015,06,29,07,38,18.40
2015,06,29,07,39,18.40
2015,06,29,07,40,18.40
2015,06,29,07,41,18.50
2015,06,29,07,42,18.60
2015,06,29,07,43,18.60
2015,06,29,07,44,18.60
2015,06,29,07,45,18.70
2015,06,29,07,46,18.80
2015,06,29,07,47,18.80
2015,06,29,07,48,18.90
2015,06,29,07,49,18.90
2015,06,29,07,50,19.00
2015,06,29,07,51,19.00
2015,06,29,07,52,19.10
2015,06,29,07,53,19.20
2015,06,29,07,54,19.20
2015,06,29,07,55,19.20
2015,06,29,07,56,19.20
2015,06,29,07,57,19.10
2015,06,29,07,58,19.20
2015,06,29,07,59,19.20
2015,06,29,08,00,19.20
2015,06,29,08,01,19.20
2015,06,29,08,02,19.30
2015,06,29,08,03,19.30
2015,06,29,08,04,19.30
2015,06,29,08,05,19.30
2015,06,29,08,06,19.40
2015,06,29,08,07,19.40
2015,06,29,08,08,19.50
2015,06,29,08,09,19.60
2015,06,29,08,10,19.70
2015,06,29,08,11,19.70
2015,06,29,08,12,19.80
2015,06,29,08,13,19.90
2015,06,29,08,14,19.90
2015,06,29,08,15,20.00
2015,06,29,08,16,20.00
2015,06,29,08,17,20.10
2015,06,29,08,18,20.10
2015,06,29,08,19,20.10
2015,06,29,08,20,20.20
2015,06,29,08,21,20.20
2015,06,29,08,22,20.20
2015,06,29,08,23,20.30
2015,06,29,08,24,20.30
2015,06,29,08,25,20.30
2015,06,29,08,26,20.30
2015,06,29,08,27,20.30
2015,06,29,08,28,20.30
2015,06,29,08,29,20.40
2015,06,29,08,30,20.40
2015,06,29,08,31,20.50
2015,06,29,08,32,20.60
2015,06,29,08,33,20.60
2015,06,29,08,34,20.60
2015,06,29,08,35,20.70
2015,06,29,08,36,20.70
2015,06,29,08,37,20.80
2015,06,29,08,38,20.80
2015,06,29,08,39,20.90
2015,06,29,08,40,20.90
2015,06,29,08,41,21.00
2015,06,29,08,42,21.10
2015,06,29,08,43,21.20
2015,06,29,08,44,21.20
2015,06,29,08,45,21.30
2015,06,29,08,46,21.40
2015,06,29,08,47,21.40
2015,06,29,08,48,21.50
2015,06,29,08,49,21.60
2015,06,29,08,50,21.60
2015,06,29,08,51,21.70
2015,06,29,08,52,21.80
2015,06,29,08,53,21.80
2015,06,29,08,54,21.80
2015,06,29,08,55,21.90
2015,06,29,08,56,22.00
2015,06,29,08,57,22.00
2015,06,29,08,58,22.10
2015,06,29,08,59,22.20
2015,06,29,09,00,22.20
2015,06,29,09,01,22.30
2015,06,29,09,02,22.30
2015,06,29,09,03,22.30
2015,06,29,09,04,22.40
2015,06,29,09,05,22.40
2015,06,29,09,06,22.40
2015,06,29,09,07,22.50
2015,06,29,09,08,22.50
2015,06,29,09,09,22.60
2015,06,29,09,10,22.60
2015,06,29,09,11,22.70
2015,06,29,09,12,22.70
2015,06,29,09,13,22.80
2015,06,29,09,14,22.80
2015,06,29,09,15,22.90
2015,06,29,09,16,22.90
2015,06,29,09,17,23.00
2015,06,29,09,18,23.00
2015,06,29,09,19,23.10
2015,06,29,09,20,23.10
2015,06,29,09,21,23.20
2015,06,29,09,22,23.20
2015,06,29,09,23,23.30
2015,06,29,09,24,23.30
2015,06,29,09,25,23.30
2015,06,29,09,26,23.30
2015,06,29,09,27,23.40
2015,06,29,09,28,23.40
2015,06,29,09,29,23.40
2015,06,29,09,30,23.50
2015,06,29,09,31,23.60
2015,06,29,09,32,23.60
2015,06,29,09,33,23.70
2015,06,29,09,34,23.70
2015,06,29,09,35,23.80
2015,06,29,09,36,23.90
2015,06,29,09,37,23.90
2015,06,29,09,38,24.00
2015,06,29,09,39,24.10
2015,06,29,09,40,24.10
2015,06,29,09,41,24.20
2015,06,29,09,42,24.20
2015,06,29,09,43,24.30
2015,06,29,09,44,24.30
2015,06,29,09,45,24.40
2015,06,29,09,46,24.40
2015,06,29,09,47,24.50
2015,06,29,09,48,24.50
2015,06,29,09,49,24.60
2015,06,29,09,50,24.60
2015,06,29,09,51,24.70
2015,06,29,09,52,24.70
2015,06,29,09,53,24.70
2015,06,29,09,54,24.80
2015,06,29,09,55,24.90
2015,06,29,09,56,24.90
2015,06,29,09,57,25.00
2015,06,29,09,58,25.10
2015,06,29,09,59,25.20
2015,06,29,10,00,25.20
2015,06,29,10,01,25.30
2015,06,29,10,02,25.30
2015,06,29,10,03,25.20
2015,06,29,10,04,25.20
2015,06,29,10,05,25.20
2015,06,29,10,06,25.30
2015,06,29,10,07,25.30
2015,06,29,10,08,25.40
2015,06,29,10,09,25.40
2015,06,29,10,10,25.50
2015,06,29,10,11,25.60
2015,06,29,10,12,25.60
2015,06,29,10,13,25.70
2015,06,29,10,14,25.70
2015,06,29,10,15,25.70
2015,06,29,10,16,25.80
2015,06,29,10,17,25.80
2015,06,29,10,18,25.80
2015,06,29,10,19,25.90
2015,06,29,10,20,25.90
2015,06,29,10,21,25.90
2015,06,29,10,22,25.90
2015,06,29,10,23,25.90
2015,06,29,10,24,26.00
2015,06,29,10,25,26.00
2015,06,29,10,26,26.10
2015,06,29,10,27,26.10
2015,06,29,10,28,26.20
2015,06,29,10,29,26.20
2015,06,29,10,30,26.20
2015,06,29,10,31,26.20
2015,06,29,10,32,26.20
2015,06,29,10,33,26.20
2015,06,29,10,34,26.20
2015,06,29,10,35,26.10
2015,06,29,10,36,26.10
2015,06,29,10,37,26.10
2015,06,29,10,38,26.10
2015,06,29,10,39,26.10
2015,06,29,10,40,26.10
2015,06,29,10,41,26.10
2015,06,29,10,42,26.10
2015,06,29,10,43,26.10
2015,06,29,10,44,26.10
2015,06,29,10,45,26.20
2015,06,29,10,46,26.20
2015,06,29,10,47,26.20
2015,06,29,10,48,26.20
2015,06,29,10,49,26.20
2015,06,29,10,50,26.30
2015,06,29,10,51,26.40
2015,06,29,10,52,26.50
2015,06,29,10,53,26.70
2015,06,29,10,54,26.80
2015,06,29,10,55,26.90
2015,06,29,10,56,26.90
2015,06,29,10,57,26.90
2015,06,29,10,58,26.90
2015,06,29,10,59,26.90
2015,06,29,11,00,26.90
2015,06,29,11,01,27.00
2015,06,29,11,02,27.00
2015,06,29,11,03,27.10
2015,06,29,11,04,27.10
2015,06,29,11,05,27.20
2015,06,29,11,06,27.30
2015,06,29,11,07,27.30
2015,06,29,11,08,27.40
2015,06,29,11,09,27.40
2015,06,29,11,10,27.50
2015,06,29,11,11,27.60
2015,06,29,11,12,27.60
2015,06,29,11,13,27.70
2015,06,29,11,14,27.70
2015,06,29,11,15,27.80
2015,06,29,11,16,27.80
2015,06,29,11,17,27.90
2015,06,29,11,18,28.00
2015,06,29,11,19,28.00
2015,06,29,11,20,28.10
2015,06,29,11,21,28.10
2015,06,29,11,22,28.20
2015,06,29,11,23,28.20
2015,06,29,11,24,28.20
2015,06,29,11,25,28.30
2015,06,29,11,26,28.40
2015,06,29,11,27,28.40
2015,06,29,11,28,28.50
2015,06,29,11,29,28.60
2015,06,29,11,30,28.60
2015,06,29,11,31,28.70
2015,06,29,11,32,28.70
2015,06,29,11,33,28.60
2015,06,29,11,34,28.60
2015,06,29,11,35,28.50
2015,06,29,11,36,28.40
2015,06,29,11,37,28.40
2015,06,29,11,38,28.50
2015,06,29,11,39,28.60
2015,06,29,11,40,28.70
2015,06,29,11,41,28.70
2015,06,29,11,42,28.80
2015,06,29,11,43,28.80
2015,06,29,11,44,28.80
2015,06,29,11,45,28.80
2015,06,29,11,46,28.80
2015,06,29,11,47,28.80
2015,06,29,11,48,28.80
2015,06,29,11,49,28.90
2015,06,29,11,50,29.00
2015,06,29,11,51,29.10
2015,06,29,11,52,29.10
2015,06,29,11,53,29.20
2015,06,29,11,54,29.20
2015,06,29,11,55,29.20
2015,06,29,11,56,29.10
2015,06,29,11,57,29.00
2015,06,29,11,58,28.90
2015,06,29,11,59,28.70
2015,06,29,12,00,28.60
2015,06,29,12,01,28.60
2015,06,29,12,02,28.60
2015,06,29,12,03,28.50
2015,06,29,12,04,28.50
2015,06,29,12,05,28.50
2015,06,29,12,06,28.40
2015,06,29,12,07,28.50
2015,06,29,12,08,28.60
2015,06,29,12,09,28.70
2015,06,29,12,10,28.70
2015,06,29,12,11,28.80
2015,06,29,12,12,28.80
2015,06,29,12,13,28.80
2015,06,29,12,14,28.80
2015,06,29,12,15,28.80
2015,06,29,12,16,28.90
2015,06,29,12,17,28.90
2015,06,29,12,18,28.90
2015,06,29,12,19,28.90
2015,06,29,12,20,28.90
2015,06,29,12,21,28.90
2015,06,29,12,22,28.90
2015,06,29,12,23,28.90
2015,06,29,12,24,28.90
2015,06,29,12,25,28.90
2015,06,29,12,26,28.90
2015,06,29,12,27,29.00
2015,06,29,12,28,29.10
2015,06,29,12,29,29.20
2015,06,29,12,30,29.30
2015,06,29,12,31,29.30
2015,06,29,12,32,29.30
2015,06,29,12,33,29.40
2015,06,29,12,34,29.40
2015,06,29,12,35,29.50
2015,06,29,12,36,29.50
2015,06,29,12,37,29.50
2015,06,29,12,38,29.60
2015,06,29,12,39,29.60
2015,06,29,12,40,29.60
2015,06,29,12,41,29.50
2015,06,29,12,42,29.50
2015,06,29,12,43,29.50
2015,06,29,12,44,29.50
2015,06,29,12,45,29.60
2015,06,29,12,46,29.70
2015,06,29,12,47,29.70
2015,06,29,12,48,29.90
2015,06,29,12,49,30.00
2015,06,29,12,50,30.10
2015,06,29,12,51,30.20
2015,06,29,12,52,30.30
2015,06,29,12,53,30.30
2015,06,29,12,54,30.40
2015,06,29,12,55,30.40
2015,06,29,12,56,30.50
2015,06,29,12,57,30.50
2015,06,29,12,58,30.50
2015,06,29,12,59,30.50
2015,06,29,13,00,30.50
2015,06,29,13,01,30.50
2015,06,29,13,02,30.60
2015,06,29,13,03,30.60
2015,06,29,13,04,30.60
2015,06,29,13,05,30.70
2015,06,29,13,06,30.80
2015,06,29,13,07,30.90
2015,06,29,13,08,30.90
2015,06,29,13,09,31.00
2015,06,29,13,10,31.10
2015,06,29,13,11,31.20
2015,06,29,13,12,31.20
2015,06,29,13,13,31.20
2015,06,29,13,14,31.20
2015,06,29,13,15,31.20
2015,06,29,13,16,31.20
2015,06,29,13,17,31.20
2015,06,29,13,18,31.20
2015,06,29,13,19,31.20
2015,06,29,13,20,31.20
2015,06,29,13,21,31.20
2015,06,29,13,22,31.30
2015,06,29,13,23,31.30
2015,06,29,13,24,31.30
2015,06,29,13,25,31.30
2015,06,29,13,26,31.20
2015,06,29,13,27,31.20
2015,06,29,13,28,31.10
2015,06,29,13,29,31.10
2015,06,29,13,30,31.20
2015,06,29,13,31,31.20
2015,06,29,13,32,31.20
2015,06,29,13,33,31.20
2015,06,29,13,34,31.20
2015,06,29,13,35,31.20
2015,06,29,13,36,31.10
2015,06,29,13,37,31.10
2015,06,29,13,38,31.10
2015,06,29,13,39,31.20
2015,06,29,13,40,31.20
2015,06,29,13,41,31.30
2015,06,29,13,42,31.40
2015,06,29,13,43,31.40
2015,06,29,13,44,31.40
2015,06,29,13,45,31.40
2015,06,29,13,46,31.50
2015,06,29,13,47,31.50
2015,06,29,13,48,31.60
2015,06,29,13,49,31.70
2015,06,29,13,50,31.70
2015,06,29,13,51,31.80
2015,06,29,13,52,31.80
2015,06,29,13,53,31.80
2015,06,29,13,54,31.80
2015,06,29,13,55,31.90
2015,06,29,13,56,31.90
2015,06,29,13,57,31.90
2015,06,29,13,58,31.90
2015,06,29,13,59,31.90
2015,06,29,14,00,31.80
2015,06,29,14,01,31.80
2015,06,29,14,02,31.60
2015,06,29,14,03,31.60
2015,06,29,14,04,31.50
2015,06,29,14,05,31.40
2015,06,29,14,06,31.40
2015,06,29,14,07,31.40
2015,06,29,14,08,31.50
2015,06,29,14,09,31.50
2015,06,29,14,10,31.60
2015,06,29,14,11,31.60
2015,06,29,14,12,31.60
2015,06,29,14,13,31.70
2015,06,29,14,14,31.70
2015,06,29,14,15,31.70
2015,06,29,14,16,31.80
2015,06,29,14,17,31.80
2015,06,29,14,18,31.80
2015,06,29,14,19,31.80
2015,06,29,14,20,31.90
2015,06,29,14,21,32.00
2015,06,29,14,22,32.00
2015,06,29,14,23,32.10
2015,06,29,14,24,32.20
2015,06,29,14,25,32.20
2015,06,29,14,26,32.00
2015,06,29,14,27,31.90
2015,06,29,14,28,31.80
2015,06,29,14,29,31.80
2015,06,29,14,30,31.90
2015,06,29,14,31,31.90
2015,06,29,14,32,31.90
2015,06,29,14,33,31.90
2015,06,29,14,34,32.00
2015,06,29,14,35,31.90
2015,06,29,14,36,31.90
2015,06,29,14,37,31.90
2015,06,29,14,38,32.00
2015,06,29,14,39,32.00
2015,06,29,14,40,32.10
2015,06,29,14,41,32.10
2015,06,29,14,42,32.10
2015,06,29,14,43,32.20
2015,06,29,14,44,32.20
2015,06,29,14,45,32.20
2015,06,29,14,46,32.20
2015,06,29,14,47,32.20
2015,06,29,14,48,32.20
2015,06,29,14,49,32.20
2015,06,29,14,50,32.20
2015,06,29,14,51,32.20
2015,06,29,14,52,32.30
2015,06,29,14,53,32.30
2015,06,29,14,54,32.40
2015,06,29,14,55,32.40
2015,06,29,14,56,32.50
2015,06,29,14,57,32.50
2015,06,29,14,58,32.30
2015,06,29,14,59,32.20
2015,06,29,15,00,32.20
2015,06,29,15,01,32.20
2015,06,29,15,02,32.20
2015,06,29,15,03,32.20
2015,06,29,15,04,32.20
2015,06,29,15,05,32.30
2015,06,29,15,06,32.30
2015,06,29,15,07,32.20
2015,06,29,15,08,32.20
2015,06,29,15,09,32.30
2015,06,29,15,10,32.30
2015,06,29,15,11,32.30
2015,06,29,15,12,32.30
2015,06,29,15,13,32.40
2015,06,29,15,14,32.40
2015,06,29,15,15,32.50
2015,06,29,15,16,32.50
2015,06,29,15,17,32.50
2015,06,29,15,18,32.60
2015,06,29,15,19,32.60
2015,06,29,15,20,32.70
2015,06,29,15,21,32.70
2015,06,29,15,22,32.70
2015,06,29,15,23,32.70
2015,06,29,15,24,32.80
2015,06,29,15,25,32.80
2015,06,29,15,26,32.80
2015,06,29,15,27,32.80
2015,06,29,15,28,32.80
2015,06,29,15,29,32.80
2015,06,29,15,30,32.70
2015,06,29,15,31,32.60
2015,06,29,15,32,32.40
2015,06,29,15,33,32.30
2015,06,29,15,34,32.20
2015,06,29,15,35,32.20
2015,06,29,15,36,32.20
2015,06,29,15,37,32.10
2015,06,29,15,38,32.00
2015,06,29,15,39,32.00
2015,06,29,15,40,32.00
2015,06,29,15,41,32.10
2015,06,29,15,42,32.10
2015,06,29,15,43,32.10
2015,06,29,15,44,32.10
2015,06,29,15,45,32.10
2015,06,29,15,46,32.10
2015,06,29,15,47,32.00
2015,06,29,15,48,31.90
2015,06,29,15,49,31.90
2015,06,29,15,50,31.90
2015,06,29,15,51,31.80
2015,06,29,15,52,31.80
2015,06,29,15,53,31.80
2015,06,29,15,54,31.80
2015,06,29,15,55,31.90
2015,06,29,15,56,31.90
2015,06,29,15,57,31.90
2015,06,29,15,58,31.90
2015,06,29,15,59,31.80
2015,06,29,16,00,31.80
2015,06,29,16,01,31.90
2015,06,29,16,02,31.90
2015,06,29,16,03,31.90
2015,06,29,16,04,31.90
2015,06,29,16,05,32.00
2015,06,29,16,06,32.00
2015,06,29,16,07,32.00
2015,06,29,16,08,31.90
2015,06,29,16,09,31.90
2015,06,29,16,10,31.90
2015,06,29,16,11,31.90
2015,06,29,16,12,31.90
2015,06,29,16,13,31.90
2015,06,29,16,14,31.90
2015,06,29,16,15,31.90
2015,06,29,16,16,31.90
2015,06,29,16,17,31.90
2015,06,29,16,18,31.90
2015,06,29,16,19,31.90
2015,06,29,16,20,31.90
2015,06,29,16,21,32.00
2015,06,29,16,22,32.10
2015,06,29,16,23,32.10
2015,06,29,16,24,32.00
2015,06,29,16,25,31.90
2015,06,29,16,26,31.70
2015,06,29,16,27,31.60
2015,06,29,16,28,31.60
2015,06,29,16,29,31.50
2015,06,29,16,30,31.40
2015,06,29,16,31,31.40
2015,06,29,16,32,31.50
2015,06,29,16,33,31.50
2015,06,29,16,34,31.50
2015,06,29,16,35,31.40
2015,06,29,16,36,31.40
2015,06,29,16,37,31.30
2015,06,29,16,38,31.20
2015,06,29,16,39,31.20
2015,06,29,16,40,31.20
2015,06,29,16,41,31.30
2015,06,29,16,42,31.20
2015,06,29,16,43,31.20
2015,06,29,16,44,31.30
2015,06,29,16,45,31.30
2015,06,29,16,46,31.20
2015,06,29,16,47,31.30
2015,06,29,16,48,31.30
2015,06,29,16,49,31.30
2015,06,29,16,50,31.40
2015,06,29,16,51,31.50
2015,06,29,16,52,31.60
2015,06,29,16,53,31.60
2015,06,29,16,54,31.60
2015,06,29,16,55,31.60
2015,06,29,16,56,31.60
2015,06,29,16,57,31.60
2015,06,29,16,58,31.60
2015,06,29,16,59,31.60
2015,06,29,17,00,31.60
2015,06,29,17,01,31.50
2015,06,29,17,02,31.40
2015,06,29,17,03,31.40
2015,06,29,17,04,31.40
2015,06,29,17,05,31.30
2015,06,29,17,06,31.30
2015,06,29,17,07,31.20
2015,06,29,17,08,31.20
2015,06,29,17,09,31.10
2015,06,29,17,10,31.00
2015,06,29,17,11,30.90
2015,06,29,17,12,30.90
2015,06,29,17,13,30.80
2015,06,29,17,14,30.70
2015,06,29,17,15,30.60
2015,06,29,17,16,30.60
2015,06,29,17,17,30.50
2015,06,29,17,18,30.50
2015,06,29,17,19,30.50